User: anonymous   Login
Location: Unspecified
(40.7945°N, 0.0000°E)
Time: 05:38:49
(UTC+00:00)
Language:

Tiros 1 - Orbit

View from above orbital plane
View from above orbital plane
View from above satellite
View from above satellite

Ground track
Ground track

The orbit data is extracted from the following two-line orbital elements,

1 00029U 60002B   21027.17718474 -.00000107  00000-0  15051-4 0  9995
2 00029  48.3808 332.7659 0023444 109.8951 250.4489 14.74400270251558
Epoch (UTC): 27 January 2021 04:15:08
Eccentricity: 0.0023444
inclination: 48.3808°
perigee height: 630 km
apogee height: 663 km
right ascension of ascending node: 332.7659°
argument of perigee: 109.8951°
revolutions per day: 14.74400270
mean anomaly at epoch: 250.4489°
orbit number at epoch: 25155

The dashed part of the orbit path shows where the satellite is in the earth's shadow,  

DLR